Lafayette, LA

6:48 PM CDT on April 26, 2018 (GMT -0500)
Lafayette Regional

Weather History for KLFT - August, 2012

Change the Weather History Date:

Tuesday, August 7, 2012

  Actual Average Record
Temperature  
Mean Temperature 84 °F 84 °F  
Max Temperature 93 °F 93 °F 100 °F (1896)
Min Temperature 75 °F 75 °F 61 °F (1923)
Cooling Degree Days 19 19  
Month to date cooling degree days 141 133  
Year to date cooling degree days 2036 1817  
Since 1 June cooling degree days 1190 1203  
Growing Degree Days 33 (Base 50)    
Moisture  
Dew Point 74 °F    
Average Humidity 75    
Maximum Humidity 94    
Minimum Humidity 56    
Precipitation  
Precipitation 0.00 in 0.15 in 2.53 in (1904)
Month to date precipitation 0.21 1.07  
Year to date precipitation 43.72 37.07  
Sea Level Pressure  
Sea Level Pressure 29.96 in    
Wind  
Wind Speed 3 mph (NNE)    
Max Wind Speed 13 mph    
Max Gust Speed 20 mph    
Visibility 10 miles    
Events      
T = Trace of Precipitation, MM = Missing Value Source: NWS Daily Summary

Daily Weather History Graph

Daily Weather History Graph

Search for Another Location

Airport or City:

Astronomy

Aug. 07, 2012 Rise Set
Actual Time 6:30 AM CDT 7:56 PM CDT
Civil Twilight 6:04 AM CDT 8:21 PM CDT
Nautical Twilight 5:34 AM CDT 8:52 PM CDT
Astronomical Twilight 5:02 AM CDT 9:24 PM CDT
Moon 11:09 PM CDT (8/7) 11:47 AM CDT (8/7)
Length of Visible Light 14h 16m
Length of Day
13h 25m
Waning Gibbous, 69% of the Moon is Illuminated
Aug 7
Waning Gibbous
Aug 9
Last Quarter
Aug 17
New
Aug 24
First Quarter
Aug 31
Full

Hourly Weather History & Observations

Time (CDT) Temp. Heat Index Dew Point Humidity Pressure Visibility Wind Dir Wind Speed Gust Speed Precip Events Conditions
12:53 AM 77.0 °F - 73.0 °F 88% 29.96 in 9.0 mi Calm Calm - N/A   Clear
1:53 AM 75.9 °F - 73.0 °F 91% 29.97 in 9.0 mi Calm Calm - N/A   Clear
2:53 AM 77.0 °F - 73.0 °F 88% 29.97 in 10.0 mi NNW 4.6 mph - N/A   Partly Cloudy
3:53 AM 75.9 °F - 73.0 °F 91% 29.96 in 8.0 mi Calm Calm - N/A   Clear
4:53 AM 75.0 °F - 73.0 °F 94% 29.96 in 8.0 mi NE 3.5 mph - N/A   Clear
5:53 AM 75.9 °F - 73.0 °F 91% 29.96 in 10.0 mi Calm Calm - N/A   Clear
6:53 AM 75.9 °F - 73.0 °F 91% 29.96 in 8.0 mi SSW 4.6 mph - N/A   Clear
7:53 AM 80.1 °F 84.5 °F 73.9 °F 81% 29.99 in 10.0 mi Calm Calm - N/A   Clear
8:53 AM 82.9 °F 88.8 °F 73.0 °F 72% 30.00 in 10.0 mi NNW 6.9 mph - N/A   Scattered Clouds
9:53 AM 86.0 °F 93.0 °F 73.0 °F 65% 30.01 in 10.0 mi North 10.4 mph - N/A   Partly Cloudy
10:53 AM 89.6 °F 98.2 °F 73.4 °F 59% 30.01 in 10.0 mi NNE 8.1 mph - N/A   Partly Cloudy
11:53 AM 90.0 °F 97.9 °F 73.0 °F 57% 29.99 in 10.0 mi North 10.4 mph - N/A   Clear
12:53 PM 91.0 °F 99.3 °F 73.0 °F 55% 29.97 in 10.0 mi NNW 5.8 mph - N/A   Clear
1:53 PM 91.0 °F 101.6 °F 75.0 °F 59% 29.97 in 10.0 mi North 9.2 mph - N/A   Partly Cloudy
2:53 PM 91.9 °F 103.2 °F 75.0 °F 58% 29.95 in 10.0 mi NNE 6.9 mph - N/A   Partly Cloudy
3:53 PM 91.9 °F 103.2 °F 75.0 °F 58% 29.93 in 10.0 mi ENE 4.6 mph - N/A   Scattered Clouds
4:53 PM 91.0 °F 101.6 °F 75.0 °F 59% 29.92 in 10.0 mi ENE 3.5 mph - N/A   Scattered Clouds
5:53 PM 91.9 °F 100.7 °F 73.0 °F 54% 29.91 in 10.0 mi Calm Calm - N/A   Clear
6:53 PM 90.0 °F 101.3 °F 75.9 °F 63% 29.92 in 10.0 mi Calm Calm - N/A   Clear
7:53 PM 87.1 °F 98.8 °F 77.0 °F 72% 29.92 in 10.0 mi Calm Calm - N/A   Clear
8:53 PM 84.0 °F 91.9 °F 75.0 °F 74% 29.94 in 10.0 mi Calm Calm - N/A   Clear
9:53 PM 82.9 °F 90.2 °F 75.0 °F 77% 29.96 in 10.0 mi Calm Calm - N/A   Clear
10:53 PM 82.9 °F 90.8 °F 75.9 °F 79% 29.96 in 10.0 mi South 3.5 mph - N/A   Clear
11:53 PM 82.4 °F 90.9 °F 77.0 °F 84% 29.95 in 10.0 mi Calm Calm - N/A   Clear